Regional Weather Roundup
Issued by NWS Grand Forks, ND

Home | Current Version | Previous Version | Graphics & Text | Print | Product List | Glossary On
Versions: 1 2 3 4 5 6 7 8 9 10 11 12 13 14 15 16 17 18 19 20 21 22 23 24 25 26 27 28 29 30 31 32 33 34 35 36 37 38 39 40 41 42 43 44 45 46 47 48 49 50
000
ASUS43 KFGF 300010
RWRFGF
PRAIRIE TO PINES  WEATHER ROUNDUP
NATIONAL WEATHER SERVICE EASTERN NORTH DAKOTA/GRAND FORKS ND
700 PM CDT MON SEP 29 2014

 **SATELLITE DATA USED TO AUGMENT SKY COVER AT AUTOMATED STATIONS**
 *****  WEATHER ACROSS EASTERN NORTH DAKOTA  *****

CITY           SKY/WX    TMP DP  RH WIND       PRES   REMARKS
GRAND FORKS    PTCLDY    57  47  69 NE3       30.09F
6HR MIN TEMP:  52; 6HR MAX TEMP:  61;

GRAND FRKS AFB PTCLDY    54  49  82 NE5       30.10F
GRAND FRKS NWS   N/A     55 N/A N/A SE5         N/A
DEVILS LAKE    CLOUDY    52  41  66 SE12      30.07F
6HR MIN TEMP:  48; 6HR MAX TEMP:  52;

FARGO          CLEAR     60  47  61 SE7       30.08F
WAHPETON ARPT  CLEAR     55  45  67 SE8       30.09S
$$

 ***** WEATHER ACROSS CENTRAL AND WESTERN NORTH DAKOTA  *****

CITY           SKY/WX    TMP DP  RH WIND       PRES   REMARKS
BISMARCK       CLOUDY    58  48  69 E12       30.01F
6HR MIN TEMP:  53; 6HR MAX TEMP:  61;

MINOT          CLOUDY    52  45  77 E8        30.03F
6HR MIN TEMP:  45; 6HR MAX TEMP:  52;

JAMESTOWN      PTCLDY    53  47  79 E5        30.06F
6HR MIN TEMP:  51; 6HR MAX TEMP:  57;

MINOT AFB      CLOUDY    51  46  83 E9        30.03F
GARRISON         N/A     54  48  80 E13       30.00F
WILLISTON      CLOUDY    52  46  80 SE10      29.97F
6HR MIN TEMP:  49; 6HR MAX TEMP:  53; 6HR PCP:  0.01;

DICKINSON      CLOUDY    49  47  93 SE8       29.97S
6HR MIN TEMP:  47; 6HR MAX TEMP:  49; 6HR PCP:  0.08;

HETTINGER      FOG       50  49  96 SE10      29.99R VSB 1
6HR MIN TEMP:  48; 6HR MAX TEMP:  50; 6HR PCP:  0.04;

$$

 *****  OTHER AIRPORT OBSERVATIONS IN OUR AREA  *****

CITY           SKY/WX    TMP DP  RH WIND       PRES   REMARKS
WALHALLA       CLOUDY    52  50  93 CALM      30.13F
GRAFTON AIRPOR MOCLDY    52  48  87 N3        30.12F
VALLEY CITY AR FAIR      55  52  88 E8        30.07F
CANDO          CLOUDY    50  45  81 SE9       30.09F
CAVALIER APRT  CLOUDY    54  46  76 SE5       30.13S
GWINNER        CLEAR     59  48  67 E9        30.06F
ROLLA          CLOUDY    48  41  76 S13       30.10S
 ***** THE ABOVE OBSERVATIONS ARE NON NWS ARE NOT QUALITY
       CONTROLLED AND MAY MIS-REPORT RAIN FOR SNOW...
$$

  *****  WEATHER ACROSS NORTHERN MINNESOTA  *****

CITY           SKY/WX    TMP DP  RH WIND       PRES   REMARKS
FLAG ISLAND    CLOUDY    52  43  71 E3        30.15F
WARROAD        CLOUDY    52  46  82 E10       30.16S
ROSEAU         CLOUDY    52  46  82 NE9       30.15F
HALLOCK        PTCLDY    54  46  76 NE5       30.12F
THF RVR FALLS  CLEAR     54  45  71 E7        30.12F
6HR MIN TEMP:  52; 6HR MAX TEMP:  57;

BAUDETTE       PTCLDY    48  42  80 E12       30.17S
6HR MIN TEMP:  48; 6HR MAX TEMP:  56;

WASKISH        PTCLDY    50  45  81 CALM      30.16
CROOKSTON      CLEAR     57  46  67 E5        30.11F
STEPHEN NDAWN    N/A     55  48  76 NE6         N/A
GREENBUSH NDAW   N/A     54  48  82 NE6         N/A
$$
  *****  WEATHER ACROSS CENTRAL AND WEST MINNESOTA  *****

CITY           SKY/WX    TMP DP  RH WIND       PRES   REMARKS
FOSSTON        CLEAR     55  48  76 SE5       30.13S
BEMIDJI        CLEAR     51  43  74 E7        30.14S
PARK RAPIDS    CLEAR     53  43  68 E8        30.13S
6HR MIN TEMP:  52; 6HR MAX TEMP:  57;

ELBOW LAKE     FAIR      52  46  79 SE9       30.11R
6HR MIN TEMP:  52; 6HR MAX TEMP:  58;

WADENA         PTCLDY    48  43  81 E6        30.12F
DETROIT LAKES  CLEAR     55  45  67 SE7       30.12S
MOORHEAD       NOT AVBL
FERGUS FALLS   CLEAR     55  45  67 E5        30.09F
MORRIS MN      PTCLDY    55  46  71 E10       30.08F
STAPLES        CLOUDY    48  43  81 E6        30.14S
$$
  *****  WEATHER ELSEWHERE ACROSS MINNESOTA  *****

CITY           SKY/WX    TMP DP  RH WIND       PRES   REMARKS
DULUTH         CLOUDY    44  38  79 E9        30.19S
6HR MIN TEMP:  44; 6HR MAX TEMP:  46; 6HR PCP: TRACE;

INTRNTL FALLS  CLOUDY    46  40  79 E6        30.19F
6HR MIN TEMP:  45; 6HR MAX TEMP:  48;

ELY            CLOUDY    45  37  76 NE3       30.20S
CLOQUET        CLOUDY    45  39  81 E8        30.19R
WHEATON        CLEAR     54  46  76 E10       30.10S
BRAINERD       CLOUDY    50  44  80 VRB3      30.15F
6HR MIN TEMP:  48; 6HR MAX TEMP:  51;

HIBBING        CLOUDY    49  40  71 NE6       30.17F
6HR MIN TEMP:  48; 6HR MAX TEMP:  53;

ALEXANDRIA     CLOUDY    52  46  80 E8        30.12F
6HR MIN TEMP:  51; 6HR MAX TEMP:  56;

SAINT CLOUD    PTCLDY    53  44  71 NE8       30.13S
6HR MIN TEMP:  53; 6HR MAX TEMP:  58;

MINNEAPOLIS    PTCLDY    55  45  68 N8        30.11S
6HR MIN TEMP:  55; 6HR MAX TEMP:  58;

$$

  *****  WEATHER ACROSS SOUTH DAKOTA  *****

CITY           SKY/WX    TMP DP  RH WIND       PRES   REMARKS
SIOUX FALLS    PTCLDY    64  56  75 E10       30.00S
6HR MIN TEMP:  64; 6HR MAX TEMP:  70;

BROOKINGS      NOT AVBL
WATERTOWN      CLOUDY    56  50  80 E14       30.03S
6HR MIN TEMP:  56; 6HR MAX TEMP:  65;

HURON          PTCLDY    66  54  65 E13       29.97R
6HR MIN TEMP:  65; 6HR MAX TEMP:  70;

SISSETON         N/A     56  50  80 SE9       30.06S
ABERDEEN       PTCLDY    60  50  69 E9        30.01F
6HR MIN TEMP:  57; 6HR MAX TEMP:  64;

MITCHELL       CLEAR     68  59  73 E14       29.95F
PIERRE         CLOUDY    66  56  70 E12       29.92S
6HR MIN TEMP:  57; 6HR MAX TEMP:  67;

MOBRIDGE       CLOUDY    61  50  67 E14       29.96F
RAPID CITY     CLOUDY    51  50  96 SE3       29.93F FOG
6HR MIN TEMP:  50; 6HR MAX TEMP:  52; 6HR PCP:  0.03;

$$

  *****  SOME WEATHER IN NEARBY STATES *****

CITY           SKY/WX    TMP DP  RH WIND       PRES   REMARKS
GLASGOW MT     CLOUDY    50  46  86 SE17      29.86F
6HR MIN TEMP:  46; 6HR MAX TEMP:  50; 6HR PCP:  0.01;

GREAT FALLS MT PTSUNNY   63  45  51 SW14      29.71F
6HR MIN TEMP:  58; 6HR MAX TEMP:  66;

CHEYENNE WY    HVY RAIN  51  49  92 N13       29.93F FOG
6HR MIN TEMP:  51; 6HR MAX TEMP:  66; 6HR PCP:  0.26;

SCOTTSBLUFF NE CLOUDY    64  58  80 N8        29.80F
6HR MIN TEMP:  61; 6HR MAX TEMP:  66;

OMAHA NE       PTCLDY    78  61  55 E6        29.94F
6HR MIN TEMP:  78; 6HR MAX TEMP:  84;

DES MOINES IA  MOCLDY    78  63  59 NE3       29.96S
6HR MIN TEMP:  77; 6HR MAX TEMP:  85;

DAVENPORT IA   NOT AVBL
CHICAGO IL     CLOUDY    60  55  83 NE20      29.97R
6HR MIN TEMP:  60; 6HR MAX TEMP:  83;

EAU CLAIRE WI  CLEAR     53  42  66 N7        30.09R
6HR MIN TEMP:  53; 6HR MAX TEMP:  61;

LA CROSSE WI   CLOUDY    58  50  75 N10       30.06S
6HR MIN TEMP:  57; 6HR MAX TEMP:  65; 6HR PCP:  0.01;

$$

  *****  SOME NATIONAL WEATHER *****

CITY           SKY/WX    TMP DP  RH WIND       PRES   REMARKS
LA GUARDIA NY  CLOUDY    74  61  63 S6        29.91S
6HR MIN TEMP:  73; 6HR MAX TEMP:  79; 6HR PCP: TRACE;

RALEIGH NC     CLOUDY    66  63  90 CALM      29.99R
6HR MIN TEMP:  65; 6HR MAX TEMP:  73; 6HR PCP:  0.01;

ATLANTA GA     MOCLDY    68  65  90 E9        29.96S
6HR MIN TEMP:  68; 6HR MAX TEMP:  71; 6HR PCP: TRACE;

NEW ORLEANS LA PTCLDY    80  69  69 CALM      29.86S
6HR MIN TEMP:  78; 6HR MAX TEMP:  84;

OKLAHOMA CITY  PTCLDY    81  56  42 SE13      29.93F
6HR MIN TEMP:  81; 6HR MAX TEMP:  88;

ALBUQUERQUE NM PTCLDY    76  38  25 W20G29    29.95R
6HR MIN TEMP:  63; 6HR MAX TEMP:  77; 6HR PCP:  0.01;

SALT LAKE CITY PTSUNNY   59  43  55 S7        29.97S
6HR MIN TEMP:  59; 6HR MAX TEMP:  65;

LOS ANGELES CA SUNNY     71  58  63 W20       29.86F
6HR MIN TEMP:  70; 6HR MAX TEMP:  73;



USA.gov is the U.S. government's official web portal to all federal, state and local government web resources and services.